Time,TemperatureF,DewpointF,PressureIn,WindDirection,WindDirectionDegrees,WindSpeedMPH,WindSpeedGustMPH,Humidity,HourlyPrecipIn,Conditions,Clouds,dailyrainin,SoftwareType,DateUTC
2013-01-04 00:01:00,29.6,28.6,29.48,ESE,120,0.0,0.0,96,0.00,,,0.00,Wunderground v.1.15,2013-01-04 09:01:00,
2013-01-04 00:06:00,29.7,29.0,29.48,ESE,120,0.0,0.0,97,0.00,,,0.00,Wunderground v.1.15,2013-01-04 09:06:00,
2013-01-04 00:12:00,29.3,28.3,29.48,ESE,120,0.0,0.0,96,0.00,,,0.00,Wunderground v.1.15,2013-01-04 09:12:00,
2013-01-04 00:18:00,28.7,27.7,29.48,ESE,120,0.0,0.0,96,0.00,,,0.00,Wunderground v.1.15,2013-01-04 09:18:00,
2013-01-04 00:24:00,28.8,27.8,29.49,ESE,120,0.0,0.0,96,0.00,,,0.00,Wunderground v.1.15,2013-01-04 09:24:00,
2013-01-04 00:29:00,28.8,27.8,29.49,ESE,120,0.0,0.0,96,0.00,,,0.00,Wunderground v.1.15,2013-01-04 09:29:00,
2013-01-04 00:35:00,28.9,27.9,29.49,ESE,120,0.0,0.0,96,0.00,,,0.00,Wunderground v.1.15,2013-01-04 09:35:00,
2013-01-04 00:41:00,29.0,28.0,29.49,ESE,120,0.0,0.0,96,0.00,,,0.00,Wunderground v.1.15,2013-01-04 09:41:00,
2013-01-04 00:47:00,29.3,28.3,29.49,ESE,120,0.0,0.0,96,0.00,,,0.00,Wunderground v.1.15,2013-01-04 09:47:00,
2013-01-04 00:52:00,29.7,29.0,29.49,ESE,120,0.0,0.0,97,0.00,,,0.00,Wunderground v.1.15,2013-01-04 09:52:00,
2013-01-04 00:58:00,29.7,28.7,29.49,ESE,120,0.0,0.0,96,0.00,,,0.00,Wunderground v.1.15,2013-01-04 09:58:00,
2013-01-04 01:04:00,29.7,28.7,29.50,ESE,120,0.0,0.0,96,0.00,,,0.00,Wunderground v.1.15,2013-01-04 10:04:00,
2013-01-04 01:10:00,29.8,28.5,29.50,ESE,120,0.0,0.0,95,0.00,,,0.00,Wunderground v.1.15,2013-01-04 10:10:00,
2013-01-04 01:15:00,29.9,28.6,29.50,ESE,120,0.0,0.0,95,0.00,,,0.00,Wunderground v.1.15,2013-01-04 10:15:00,
2013-01-04 01:21:00,29.7,28.2,29.50,ESE,120,0.0,0.0,94,0.00,,,0.00,Wunderground v.1.15,2013-01-04 10:21:00,
2013-01-04 01:27:00,29.4,28.1,29.50,ESE,120,0.0,0.0,95,0.00,,,0.00,Wunderground v.1.15,2013-01-04 10:27:00,
2013-01-04 01:33:00,29.3,28.0,29.50,ESE,120,0.0,0.0,95,0.00,,,0.00,Wunderground v.1.15,2013-01-04 10:33:00,
2013-01-04 01:39:00,29.5,28.2,29.51,ESE,120,0.0,0.0,95,0.00,,,0.00,Wunderground v.1.15,2013-01-04 10:39:00,
2013-01-04 01:45:00,29.6,28.3,29.51,ESE,120,0.0,0.0,95,0.00,,,0.00,Wunderground v.1.15,2013-01-04 10:45:00,
2013-01-04 01:51:00,29.8,28.5,29.51,ESE,120,0.0,0.0,95,0.00,,,0.00,Wunderground v.1.15,2013-01-04 10:51:00,
2013-01-04 01:56:00,29.9,28.6,29.51,ESE,120,0.0,0.0,95,0.00,,,0.00,Wunderground v.1.15,2013-01-04 10:56:00,
2013-01-04 02:02:00,29.9,28.1,29.51,ESE,120,0.0,0.0,93,0.00,,,0.00,Wunderground v.1.15,2013-01-04 11:02:00,
2013-01-04 02:08:00,30.0,28.0,29.51,ESE,120,0.0,0.0,92,0.00,,,0.00,Wunderground v.1.15,2013-01-04 11:08:00,
2013-01-04 02:14:00,30.0,27.7,29.51,ESE,120,0.0,0.0,91,0.00,,,0.00,Wunderground v.1.15,2013-01-04 11:14:00,
2013-01-04 02:19:00,30.0,28.0,29.51,ESE,120,0.0,0.0,92,0.00,,,0.00,Wunderground v.1.15,2013-01-04 11:19:00,
2013-01-04 02:25:00,30.1,28.1,29.51,ESE,120,0.0,0.0,92,0.00,,,0.00,Wunderground v.1.15,2013-01-04 11:25:00,
2013-01-04 02:31:00,30.1,27.8,29.52,ESE,120,0.0,0.0,91,0.00,,,0.00,Wunderground v.1.15,2013-01-04 11:31:00,
2013-01-04 02:37:00,30.2,27.9,29.52,ESE,120,0.0,0.0,91,0.00,,,0.00,Wunderground v.1.15,2013-01-04 11:37:00,
2013-01-04 02:43:00,30.2,28.2,29.52,ESE,120,0.0,0.0,92,0.00,,,0.00,Wunderground v.1.15,2013-01-04 11:43:00,
2013-01-04 02:49:00,30.2,28.2,29.52,ESE,120,0.0,0.0,92,0.00,,,0.00,Wunderground v.1.15,2013-01-04 11:49:00,
2013-01-04 02:55:00,30.3,28.3,29.53,ESE,120,0.0,0.0,92,0.00,,,0.00,Wunderground v.1.15,2013-01-04 11:55:00,
2013-01-04 03:00:00,30.4,28.4,29.53,ESE,120,0.0,0.0,92,0.00,,,0.00,Wunderground v.1.15,2013-01-04 12:00:00,
2013-01-04 03:06:00,30.5,28.5,29.53,ESE,120,0.0,0.0,92,0.00,,,0.00,Wunderground v.1.15,2013-01-04 12:06:00,
2013-01-04 03:12:00,30.5,28.5,29.53,ESE,120,0.0,0.0,92,0.00,,,0.00,Wunderground v.1.15,2013-01-04 12:12:00,
2013-01-04 03:18:00,30.2,28.2,29.54,ESE,120,0.0,0.0,92,0.00,,,0.00,Wunderground v.1.15,2013-01-04 12:18:00,
2013-01-04 03:23:00,29.8,27.5,29.54,ESE,120,0.0,0.0,91,0.00,,,0.00,Wunderground v.1.15,2013-01-04 12:23:00,
2013-01-04 03:29:00,29.2,26.9,29.54,ESE,120,0.0,0.0,91,0.00,,,0.00,Wunderground v.1.15,2013-01-04 12:29:00,
2013-01-04 03:35:00,29.2,26.9,29.55,ESE,120,0.0,0.0,91,0.00,,,0.00,Wunderground v.1.15,2013-01-04 12:35:00,
2013-01-04 03:41:00,29.6,27.6,29.55,ESE,120,0.0,0.0,92,0.00,,,0.00,Wunderground v.1.15,2013-01-04 12:41:00,
2013-01-04 03:47:00,30.0,27.4,29.55,ESE,120,0.0,0.0,90,0.00,,,0.00,Wunderground v.1.15,2013-01-04 12:47:00,
2013-01-04 03:53:00,29.7,27.4,29.55,ESE,120,0.0,0.0,91,0.00,,,0.00,Wunderground v.1.15,2013-01-04 12:53:00,
2013-01-04 03:59:00,29.7,27.4,29.55,ESE,120,0.0,0.0,91,0.00,,,0.00,Wunderground v.1.15,2013-01-04 12:59:00,
2013-01-04 04:04:00,30.0,27.7,29.55,ESE,120,0.0,0.0,91,0.00,,,0.00,Wunderground v.1.15,2013-01-04 13:04:00,
2013-01-04 04:10:00,30.0,27.4,29.55,ESE,120,0.0,0.0,90,0.00,,,0.00,Wunderground v.1.15,2013-01-04 13:10:00,
2013-01-04 04:16:00,30.0,27.4,29.56,ESE,120,0.0,0.0,90,0.00,,,0.00,Wunderground v.1.15,2013-01-04 13:16:00,
2013-01-04 04:22:00,30.1,27.5,29.56,ESE,120,0.0,0.0,90,0.00,,,0.00,Wunderground v.1.15,2013-01-04 13:22:00,
2013-01-04 04:27:00,30.1,27.5,29.56,ESE,120,0.0,0.0,90,0.00,,,0.00,Wunderground v.1.15,2013-01-04 13:27:00,
2013-01-04 04:33:00,30.0,27.4,29.56,ESE,120,0.0,0.0,90,0.00,,,0.00,Wunderground v.1.15,2013-01-04 13:33:00,
2013-01-04 04:39:00,30.1,27.5,29.56,ESE,120,0.0,0.0,90,0.00,,,0.00,Wunderground v.1.15,2013-01-04 13:39:00,
2013-01-04 04:45:00,30.1,27.5,29.56,ESE,120,0.0,0.0,90,0.00,,,0.00,Wunderground v.1.15,2013-01-04 13:45:00,
2013-01-04 04:51:00,30.1,27.5,29.56,ESE,120,0.0,0.0,90,0.00,,,0.00,Wunderground v.1.15,2013-01-04 13:51:00,
2013-01-04 04:57:00,30.0,27.4,29.56,ESE,120,0.0,0.0,90,0.00,,,0.00,Wunderground v.1.15,2013-01-04 13:57:00,
2013-01-04 05:03:00,29.8,27.2,29.56,ESE,120,0.0,0.0,90,0.00,,,0.00,Wunderground v.1.15,2013-01-04 14:03:00,
2013-01-04 05:09:00,29.8,27.2,29.57,ESE,120,0.0,0.0,90,0.00,,,0.00,Wunderground v.1.15,2013-01-04 14:09:00,
2013-01-04 05:14:00,29.7,27.4,29.57,ESE,120,0.0,0.0,91,0.00,,,0.00,Wunderground v.1.15,2013-01-04 14:14:00,
2013-01-04 05:20:00,29.6,27.3,29.57,ESE,120,0.0,0.0,91,0.00,,,0.00,Wunderground v.1.15,2013-01-04 14:20:00,
2013-01-04 05:26:00,29.5,27.2,29.57,ESE,120,0.0,0.0,91,0.00,,,0.00,Wunderground v.1.15,2013-01-04 14:26:00,
2013-01-04 05:32:00,29.5,27.2,29.58,ESE,120,0.0,0.0,91,0.00,,,0.00,Wunderground v.1.15,2013-01-04 14:32:00,
2013-01-04 05:38:00,29.5,26.9,29.58,ESE,120,0.0,0.0,90,0.00,,,0.00,Wunderground v.1.15,2013-01-04 14:38:00,
2013-01-04 05:44:00,28.7,26.1,29.58,ESE,120,0.0,0.0,90,0.00,,,0.00,Wunderground v.1.15,2013-01-04 14:44:00,
2013-01-04 05:50:00,28.3,26.3,29.59,ESE,120,0.0,0.0,92,0.00,,,0.00,Wunderground v.1.15,2013-01-04 14:50:00,
2013-01-04 05:56:00,28.3,26.3,29.58,ESE,120,0.0,0.0,92,0.00,,,0.00,Wunderground v.1.15,2013-01-04 14:56:00,
2013-01-04 06:01:00,28.3,26.5,29.59,ESE,120,0.0,0.0,93,0.00,,,0.00,Wunderground v.1.15,2013-01-04 15:01:00,
2013-01-04 06:07:00,28.2,26.4,29.59,ESE,120,0.0,0.0,93,0.00,,,0.00,Wunderground v.1.15,2013-01-04 15:07:00,
2013-01-04 06:13:00,28.8,26.8,29.59,ESE,120,0.0,0.0,92,0.00,,,0.00,Wunderground v.1.15,2013-01-04 15:13:00,
2013-01-04 06:19:00,29.2,27.2,29.59,ESE,120,0.0,0.0,92,0.00,,,0.00,Wunderground v.1.15,2013-01-04 15:19:00,
2013-01-04 06:25:00,29.6,27.3,29.59,ESE,120,0.0,0.0,91,0.00,,,0.00,Wunderground v.1.15,2013-01-04 15:25:00,
2013-01-04 06:31:00,29.8,27.5,29.59,ESE,121,0.0,0.0,91,0.00,,,0.00,Wunderground v.1.15,2013-01-04 15:31:00,
2013-01-04 06:37:00,30.0,27.4,29.59,ESE,120,0.0,0.0,90,0.00,,,0.00,Wunderground v.1.15,2013-01-04 15:37:00,
2013-01-04 06:42:00,29.7,27.4,29.60,ESE,122,0.0,0.0,91,0.00,,,0.00,Wunderground v.1.15,2013-01-04 15:42:00,
2013-01-04 06:48:00,29.7,27.4,29.60,ESE,120,0.0,0.0,91,0.00,,,0.00,Wunderground v.1.15,2013-01-04 15:48:00,
2013-01-04 06:54:00,29.9,27.6,29.60,ESE,118,0.0,0.0,91,0.00,,,0.01,Wunderground v.1.15,2013-01-04 15:54:00,
2013-01-04 07:00:00,30.0,27.4,29.60,ESE,120,0.0,0.0,90,0.00,,,0.01,Wunderground v.1.15,2013-01-04 16:00:00,
2013-01-04 07:05:00,30.1,27.5,29.60,ESE,118,0.0,0.0,90,0.00,,,0.01,Wunderground v.1.15,2013-01-04 16:05:00,
2013-01-04 07:11:00,30.2,27.6,29.61,ESE,118,0.0,0.0,90,0.00,,,0.01,Wunderground v.1.15,2013-01-04 16:11:00,
2013-01-04 07:17:00,29.7,27.1,29.61,ESE,118,0.0,0.0,90,0.00,,,0.01,Wunderground v.1.15,2013-01-04 16:17:00,
2013-01-04 07:23:00,28.2,25.1,29.61,SE,138,0.0,0.0,88,0.00,,,0.01,Wunderground v.1.15,2013-01-04 16:23:00,
2013-01-04 07:28:00,27.2,25.2,29.61,SE,127,0.0,0.0,92,0.00,,,0.01,Wunderground v.1.15,2013-01-04 16:28:00,
2013-01-04 07:34:00,27.5,25.5,29.62,SE,128,0.0,0.0,92,0.00,,,0.01,Wunderground v.1.15,2013-01-04 16:34:00,
2013-01-04 07:40:00,27.6,25.6,29.62,SE,133,0.0,0.0,92,0.00,,,0.01,Wunderground v.1.15,2013-01-04 16:40:00,
2013-01-04 07:46:00,28.0,26.2,29.62,SE,127,0.0,0.0,93,0.00,,,0.01,Wunderground v.1.15,2013-01-04 16:46:00,
2013-01-04 07:51:00,28.3,26.3,29.63,SE,124,0.0,0.0,92,0.00,,,0.01,Wunderground v.1.15,2013-01-04 16:51:00,
2013-01-04 07:57:00,28.5,26.5,29.63,SE,129,0.0,0.0,92,0.00,,,0.01,Wunderground v.1.15,2013-01-04 16:57:00,
2013-01-04 08:03:00,28.7,26.7,29.63,SE,129,0.0,0.0,92,0.00,,,0.01,Wunderground v.1.15,2013-01-04 17:03:00,
2013-01-04 08:09:00,28.8,26.8,29.63,ESE,121,0.0,0.0,92,0.00,,,0.01,Wunderground v.1.15,2013-01-04 17:09:00,
2013-01-04 08:14:00,29.1,26.8,29.63,SE,133,0.0,0.0,91,0.00,,,0.01,Wunderground v.1.15,2013-01-04 17:14:00,
2013-01-04 08:20:00,29.0,26.7,29.63,ESE,123,0.0,0.0,91,0.00,,,0.01,Wunderground v.1.15,2013-01-04 17:20:00,
2013-01-04 08:26:00,29.1,26.5,29.63,ESE,120,0.0,0.0,90,0.00,,,0.01,Wunderground v.1.15,2013-01-04 17:26:00,
2013-01-04 08:31:00,29.0,26.2,29.64,ESE,122,0.0,0.0,89,0.00,,,0.01,Wunderground v.1.15,2013-01-04 17:31:00,
2013-01-04 08:37:00,29.0,26.2,29.64,ESE,122,0.0,0.0,89,0.00,,,0.01,Wunderground v.1.15,2013-01-04 17:37:00,
2013-01-04 08:43:00,29.0,25.6,29.64,ESE,118,0.0,0.0,87,0.00,,,0.01,Wunderground v.1.15,2013-01-04 17:43:00,
2013-01-04 08:49:00,29.0,25.6,29.64,ESE,119,0.0,0.0,87,0.00,,,0.01,Wunderground v.1.15,2013-01-04 17:49:00,
2013-01-04 08:54:00,28.8,25.1,29.64,ESE,119,0.0,0.0,86,0.00,,,0.01,Wunderground v.1.15,2013-01-04 17:54:00,
2013-01-04 09:00:00,28.7,25.3,29.64,ESE,118,0.0,0.0,87,0.00,,,0.01,Wunderground v.1.15,2013-01-04 18:00:00,
2013-01-04 09:06:00,29.0,25.3,29.64,ESE,118,0.0,0.0,86,0.00,,,0.01,Wunderground v.1.15,2013-01-04 18:06:00,
2013-01-04 09:12:00,29.2,25.5,29.65,ESE,118,0.0,0.0,86,0.00,,,0.01,Wunderground v.1.15,2013-01-04 18:12:00,
2013-01-04 09:17:00,29.0,25.1,29.65,South,181,0.0,0.0,85,0.00,,,0.01,Wunderground v.1.15,2013-01-04 18:17:00,
2013-01-04 09:23:00,29.0,25.1,29.65,South,181,0.0,0.0,85,0.00,,,0.01,Wunderground v.1.15,2013-01-04 18:23:00,
2013-01-04 09:29:00,29.2,25.3,29.65,South,186,0.0,0.0,85,0.00,,,0.01,Wunderground v.1.15,2013-01-04 18:29:00,
2013-01-04 09:35:00,28.8,24.6,29.66,South,191,0.0,0.0,84,0.00,,,0.01,Wunderground v.1.15,2013-01-04 18:35:00,
2013-01-04 09:41:00,27.6,23.7,29.66,South,191,0.0,0.0,85,0.00,,,0.01,Wunderground v.1.15,2013-01-04 18:41:00,
2013-01-04 09:47:00,27.6,24.2,29.67,South,176,0.0,0.0,87,0.00,,,0.01,Wunderground v.1.15,2013-01-04 18:47:00,
2013-01-04 09:53:00,28.1,24.7,29.67,SSW,204,0.0,0.0,87,0.00,,,0.01,Wunderground v.1.15,2013-01-04 18:53:00,
2013-01-04 09:58:00,28.3,24.6,29.67,SSW,205,0.0,0.0,86,0.00,,,0.01,Wunderground v.1.15,2013-01-04 18:58:00,
2013-01-04 10:04:00,28.5,24.8,29.67,SSW,210,0.0,0.0,86,0.00,,,0.01,Wunderground v.1.15,2013-01-04 19:04:00,
2013-01-04 10:10:00,28.2,24.3,29.67,SSW,204,0.0,0.0,85,0.00,,,0.01,Wunderground v.1.15,2013-01-04 19:10:00,
2013-01-04 10:16:00,27.6,24.2,29.68,SSW,210,0.0,0.0,87,0.00,,,0.01,Wunderground v.1.15,2013-01-04 19:16:00,
2013-01-04 10:21:00,27.8,24.7,29.68,SW,214,0.0,0.0,88,0.00,,,0.01,Wunderground v.1.15,2013-01-04 19:21:00,
2013-01-04 10:27:00,27.8,24.7,29.68,SSW,201,0.0,0.0,88,0.00,,,0.01,Wunderground v.1.15,2013-01-04 19:27:00,
2013-01-04 10:33:00,27.8,24.7,29.69,SSW,205,0.0,0.0,88,0.00,,,0.01,Wunderground v.1.15,2013-01-04 19:33:00,
2013-01-04 10:39:00,27.6,24.5,29.69,WSW,252,0.0,0.0,88,0.00,,,0.01,Wunderground v.1.15,2013-01-04 19:39:00,
2013-01-04 10:45:00,27.4,24.3,29.69,SSW,201,0.0,0.0,88,0.00,,,0.01,Wunderground v.1.15,2013-01-04 19:45:00,
2013-01-04 10:51:00,27.5,24.7,29.69,SSW,201,0.0,0.0,89,0.00,,,0.01,Wunderground v.1.15,2013-01-04 19:51:00,
2013-01-04 10:57:00,27.5,24.7,29.69,SSW,193,0.0,0.0,89,0.00,,,0.01,Wunderground v.1.15,2013-01-04 19:57:00,
2013-01-04 11:02:00,27.8,24.7,29.70,SSW,207,0.0,0.0,88,0.00,,,0.01,Wunderground v.1.15,2013-01-04 20:02:00,
2013-01-04 11:08:00,28.1,24.7,29.70,SW,215,0.0,0.0,87,0.00,,,0.01,Wunderground v.1.15,2013-01-04 20:08:00,
2013-01-04 11:14:00,28.0,24.4,29.70,SSW,211,0.0,0.0,86,0.00,,,0.01,Wunderground v.1.15,2013-01-04 20:14:00,
2013-01-04 11:20:00,28.1,24.2,29.70,SSW,207,0.0,0.0,85,0.00,,,0.01,Wunderground v.1.15,2013-01-04 20:20:00,
2013-01-04 11:25:00,28.1,24.2,29.70,SSW,212,0.0,0.0,85,0.00,,,0.01,Wunderground v.1.15,2013-01-04 20:25:00,
2013-01-04 11:31:00,28.3,24.1,29.70,SSW,201,0.0,0.0,84,0.00,,,0.01,Wunderground v.1.15,2013-01-04 20:31:00,
2013-01-04 11:37:00,28.4,24.2,29.70,SSW,210,0.0,0.0,84,0.00,,,0.01,Wunderground v.1.15,2013-01-04 20:37:00,
2013-01-04 11:43:00,28.3,24.1,29.70,SW,231,0.0,0.0,84,0.00,,,0.01,Wunderground v.1.15,2013-01-04 20:43:00,
2013-01-04 11:49:00,28.5,24.3,29.70,SW,214,0.0,0.0,84,0.00,,,0.01,Wunderground v.1.15,2013-01-04 20:49:00,
2013-01-04 11:55:00,28.6,24.1,29.70,SSW,211,0.0,0.0,83,0.00,,,0.01,Wunderground v.1.15,2013-01-04 20:55:00,
2013-01-04 12:01:00,28.5,24.6,29.70,SSW,203,0.0,0.0,85,0.00,,,0.01,Wunderground v.1.15,2013-01-04 21:01:00,
2013-01-04 12:07:00,28.6,24.4,29.70,SSW,205,0.0,0.0,84,0.00,,,0.01,Wunderground v.1.15,2013-01-04 21:07:00,
2013-01-04 12:12:00,28.3,24.6,29.70,SW,217,0.0,0.0,86,0.00,,,0.01,Wunderground v.1.15,2013-01-04 21:12:00,
2013-01-04 12:18:00,28.5,24.8,29.70,SW,214,0.0,0.0,86,0.00,,,0.01,Wunderground v.1.15,2013-01-04 21:18:00,
2013-01-04 12:24:00,28.7,25.0,29.70,SW,232,0.0,0.0,86,0.00,,,0.01,Wunderground v.1.15,2013-01-04 21:24:00,
2013-01-04 12:30:00,29.1,25.4,29.71,SW,233,0.0,0.0,86,0.00,,,0.01,Wunderground v.1.15,2013-01-04 21:30:00,
2013-01-04 12:36:00,29.3,25.9,29.70,SSW,212,0.0,0.0,87,0.00,,,0.01,Wunderground v.1.15,2013-01-04 21:36:00,
2013-01-04 12:42:00,29.3,25.6,29.70,SW,236,0.0,0.0,86,0.00,,,0.01,Wunderground v.1.15,2013-01-04 21:42:00,
2013-01-04 12:48:00,29.5,25.8,29.70,WSW,243,0.0,0.0,86,0.00,,,0.01,Wunderground v.1.15,2013-01-04 21:48:00,
2013-01-04 12:53:00,29.7,26.0,29.70,SW,236,0.0,0.0,86,0.00,,,0.01,Wunderground v.1.15,2013-01-04 21:53:00,
2013-01-04 12:59:00,29.8,26.1,29.70,WSW,243,0.0,0.0,86,0.00,,,0.01,Wunderground v.1.15,2013-01-04 21:59:00,
2013-01-04 13:05:00,29.9,26.2,29.70,SSW,205,0.0,5.0,86,0.00,,,0.01,Wunderground v.1.15,2013-01-04 22:05:00,
2013-01-04 13:11:00,30.1,26.1,29.70,WSW,245,3.0,5.0,85,0.00,,,0.01,Wunderground v.1.15,2013-01-04 22:11:00,
2013-01-04 13:16:00,30.3,26.3,29.70,WSW,238,5.0,6.0,85,0.00,,,0.01,Wunderground v.1.15,2013-01-04 22:16:00,
2013-01-04 13:22:00,30.5,26.5,29.70,SSW,205,5.0,6.0,85,0.00,,,0.01,Wunderground v.1.15,2013-01-04 22:22:00,
2013-01-04 13:28:00,30.6,26.3,29.70,WSW,250,5.0,9.0,84,0.00,,,0.01,Wunderground v.1.15,2013-01-04 22:28:00,
2013-01-04 13:34:00,30.8,26.8,29.70,SW,219,5.0,7.0,85,0.00,,,0.01,Wunderground v.1.15,2013-01-04 22:34:00,
2013-01-04 13:40:00,30.8,26.8,29.70,SW,228,4.0,4.0,85,0.00,,,0.01,Wunderground v.1.15,2013-01-04 22:40:00,
2013-01-04 13:46:00,30.8,26.8,29.70,SW,224,4.0,5.0,85,0.00,,,0.01,Wunderground v.1.15,2013-01-04 22:46:00,
2013-01-04 13:52:00,30.6,26.9,29.70,NNE,20,4.0,4.0,86,0.00,,,0.01,Wunderground v.1.15,2013-01-04 22:52:00,
2013-01-04 13:57:00,30.5,26.8,29.70,SW,233,4.0,7.0,86,0.00,,,0.01,Wunderground v.1.15,2013-01-04 22:57:00,
2013-01-04 14:03:00,30.5,26.8,29.71,NNE,20,3.0,9.0,86,0.00,,,0.01,Wunderground v.1.15,2013-01-04 23:03:00,
2013-01-04 14:09:00,30.4,26.7,29.71,East,86,2.0,9.0,86,0.00,,,0.01,Wunderground v.1.15,2013-01-04 23:09:00,
2013-01-04 14:15:00,30.3,26.6,29.71,WSW,238,2.0,3.0,86,0.00,,,0.01,Wunderground v.1.15,2013-01-04 23:15:00,
2013-01-04 14:20:00,30.1,26.4,29.70,WSW,245,2.0,4.0,86,0.00,,,0.01,Wunderground v.1.15,2013-01-04 23:20:00,
2013-01-04 14:26:00,30.1,26.4,29.71,WSW,240,1.0,4.0,86,0.00,,,0.01,Wunderground v.1.15,2013-01-04 23:26:00,
2013-01-04 14:32:00,30.3,26.6,29.71,South,190,1.0,3.0,86,0.00,,,0.01,Wunderground v.1.15,2013-01-04 23:32:00,
2013-01-04 14:38:00,30.4,26.7,29.70,SSW,212,1.0,5.0,86,0.00,,,0.01,Wunderground v.1.15,2013-01-04 23:38:00,
2013-01-04 14:44:00,30.6,26.6,29.70,SSW,207,2.0,5.0,85,0.00,,,0.01,Wunderground v.1.15,2013-01-04 23:44:00,
2013-01-04 14:50:00,30.4,26.4,29.70,WSW,243,3.0,3.0,85,0.00,,,0.01,Wunderground v.1.15,2013-01-04 23:50:00,
2013-01-04 14:56:00,30.3,26.3,29.70,WSW,255,3.0,4.0,85,0.00,,,0.01,Wunderground v.1.15,2013-01-04 23:56:00,
2013-01-04 15:01:00,30.3,26.0,29.70,SW,214,2.0,3.0,84,0.00,,,0.01,Wunderground v.1.15,2013-01-05 00:01:00,
2013-01-04 15:07:00,30.4,25.9,29.70,SW,236,1.0,3.0,83,0.00,,,0.01,Wunderground v.1.15,2013-01-05 00:07:00,
2013-01-04 15:13:00,30.6,25.8,29.70,SW,236,1.0,4.0,82,0.00,,,0.01,Wunderground v.1.15,2013-01-05 00:13:00,
2013-01-04 15:19:00,30.5,26.2,29.70,NW,322,2.0,6.0,84,0.00,,,0.01,Wunderground v.1.15,2013-01-05 00:19:00,
2013-01-04 15:24:00,30.6,26.1,29.70,WNW,303,2.0,2.0,83,0.00,,,0.01,Wunderground v.1.15,2013-01-05 00:24:00,
2013-01-04 15:30:00,30.8,26.5,29.70,WSW,242,1.0,3.0,84,0.00,,,0.01,Wunderground v.1.15,2013-01-05 00:30:00,
2013-01-04 15:36:00,30.6,26.6,29.70,ENE,62,2.0,11.0,85,0.00,,,0.01,Wunderground v.1.15,2013-01-05 00:36:00,
2013-01-04 15:42:00,30.5,26.5,29.70,NW,319,1.0,2.0,85,0.00,,,0.01,Wunderground v.1.15,2013-01-05 00:42:00,
2013-01-04 15:48:00,30.4,26.7,29.70,NE,51,1.0,4.0,86,0.00,,,0.01,Wunderground v.1.15,2013-01-05 00:48:00,
2013-01-04 15:54:00,30.4,26.7,29.70,WSW,255,1.0,3.0,86,0.00,,,0.01,Wunderground v.1.15,2013-01-05 00:54:00,
2013-01-04 16:00:00,30.4,26.7,29.70,East,89,2.0,2.0,86,0.00,,,0.01,Wunderground v.1.15,2013-01-05 01:00:00,
2013-01-04 16:06:00,30.3,26.6,29.70,WSW,240,1.0,4.0,86,0.00,,,0.01,Wunderground v.1.15,2013-01-05 01:06:00,
2013-01-04 16:11:00,30.2,26.5,29.70,North,356,2.0,4.0,86,0.00,,,0.01,Wunderground v.1.15,2013-01-05 01:11:00,
2013-01-04 16:17:00,30.3,26.6,29.70,ENE,70,2.0,4.0,86,0.00,,,0.01,Wunderground v.1.15,2013-01-05 01:17:00,
2013-01-04 16:23:00,30.2,26.2,29.70,North,360,2.0,2.0,85,0.00,,,0.01,Wunderground v.1.15,2013-01-05 01:23:00,
2013-01-04 16:29:00,30.4,26.7,29.70,East,98,2.0,4.0,86,0.00,,,0.01,Wunderground v.1.15,2013-01-05 01:29:00,
2013-01-04 16:35:00,30.1,26.4,29.70,ENE,77,1.0,3.0,86,0.00,,,0.01,Wunderground v.1.15,2013-01-05 01:35:00,
2013-01-04 16:41:00,29.8,26.4,29.70,North,6,2.0,5.0,87,0.00,,,0.01,Wunderground v.1.15,2013-01-05 01:41:00,
2013-01-04 16:47:00,29.7,26.3,29.70,ENE,70,2.0,5.0,87,0.00,,,0.01,Wunderground v.1.15,2013-01-05 01:47:00,
2013-01-04 16:53:00,29.6,26.2,29.70,ESE,109,2.0,2.0,87,0.00,,,0.01,Wunderground v.1.15,2013-01-05 01:53:00,
2013-01-04 16:58:00,29.5,25.8,29.70,NE,54,1.0,2.0,86,0.00,,,0.01,Wunderground v.1.15,2013-01-05 01:58:00,
2013-01-04 17:04:00,29.7,26.0,29.70,ENE,68,1.0,5.0,86,0.00,,,0.01,Wunderground v.1.15,2013-01-05 02:04:00,
2013-01-04 17:10:00,29.8,25.8,29.70,ENE,61,2.0,2.0,85,0.00,,,0.01,Wunderground v.1.15,2013-01-05 02:10:00,
2013-01-04 17:16:00,29.8,25.6,29.70,East,96,1.0,4.0,84,0.00,,,0.01,Wunderground v.1.15,2013-01-05 02:16:00,
2013-01-04 17:22:00,29.5,25.3,29.69,ENE,58,1.0,1.0,84,0.00,,,0.01,Wunderground v.1.15,2013-01-05 02:22:00,
2013-01-04 17:28:00,29.1,25.2,29.69,NNE,25,1.0,3.0,85,0.00,,,0.01,Wunderground v.1.15,2013-01-05 02:28:00,
2013-01-04 17:34:00,29.3,25.1,29.69,ENE,72,1.0,2.0,84,0.00,,,0.01,Wunderground v.1.15,2013-01-05 02:34:00,
2013-01-04 17:39:00,29.2,24.7,29.68,NNW,339,1.0,7.0,83,0.00,,,0.01,Wunderground v.1.15,2013-01-05 02:39:00,
2013-01-04 17:45:00,28.8,24.3,29.68,NE,51,3.0,3.0,83,0.00,,,0.01,Wunderground v.1.15,2013-01-05 02:45:00,
2013-01-04 17:51:00,29.0,24.2,29.68,NNW,344,3.0,5.0,82,0.00,,,0.01,Wunderground v.1.15,2013-01-05 02:51:00,
2013-01-04 17:57:00,29.2,24.1,29.68,North,352,4.0,6.0,81,0.00,,,0.01,Wunderground v.1.15,2013-01-05 02:57:00,
2013-01-04 18:02:00,29.3,24.2,29.68,North,355,4.0,4.0,81,0.00,,,0.01,Wunderground v.1.15,2013-01-05 03:02:00,
2013-01-04 18:08:00,29.3,24.8,29.67,NNE,27,3.0,6.0,83,0.00,,,0.01,Wunderground v.1.15,2013-01-05 03:08:00,
2013-01-04 18:13:00,29.2,25.0,29.67,North,11,3.0,10.0,84,0.00,,,0.01,Wunderground v.1.15,2013-01-05 03:13:00,
2013-01-04 18:19:00,29.6,25.6,29.67,NNE,32,4.0,10.0,85,0.00,,,0.01,Wunderground v.1.15,2013-01-05 03:19:00,
2013-01-04 18:25:00,29.7,25.7,29.67,East,97,3.0,4.0,85,0.00,,,0.01,Wunderground v.1.15,2013-01-05 03:25:00,
2013-01-04 18:31:00,29.6,25.6,29.67,NE,51,2.0,2.0,85,0.00,,,0.01,Wunderground v.1.15,2013-01-05 03:31:00,
2013-01-04 18:37:00,29.8,25.8,29.67,ENE,65,2.0,7.0,85,0.00,,,0.01,Wunderground v.1.15,2013-01-05 03:37:00,
2013-01-04 18:43:00,29.8,25.8,29.67,NE,54,1.0,2.0,85,0.00,,,0.01,Wunderground v.1.15,2013-01-05 03:43:00,
2013-01-04 18:48:00,30.0,25.8,29.67,NE,48,1.0,2.0,84,0.00,,,0.01,Wunderground v.1.15,2013-01-05 03:48:00,
2013-01-04 18:54:00,30.1,26.1,29.66,NE,41,1.0,7.0,85,0.00,,,0.01,Wunderground v.1.15,2013-01-05 03:54:00,
2013-01-04 19:00:00,30.2,25.9,29.67,NE,43,3.0,4.0,84,0.00,,,0.01,Wunderground v.1.15,2013-01-05 04:00:00,
2013-01-04 19:06:00,30.2,26.2,29.66,NNE,23,4.0,8.0,85,0.00,,,0.01,Wunderground v.1.15,2013-01-05 04:06:00,
2013-01-04 19:12:00,30.1,26.1,29.66,NE,43,3.0,8.0,85,0.00,,,0.01,Wunderground v.1.15,2013-01-05 04:12:00,
2013-01-04 19:18:00,30.2,26.2,29.66,NNE,30,3.0,8.0,85,0.00,,,0.01,Wunderground v.1.15,2013-01-05 04:18:00,
2013-01-04 19:24:00,30.2,26.2,29.65,NNE,21,2.0,4.0,85,0.00,,,0.01,Wunderground v.1.15,2013-01-05 04:24:00,
2013-01-04 19:30:00,30.1,26.4,29.65,SSE,147,2.0,2.0,86,0.00,,,0.01,Wunderground v.1.15,2013-01-05 04:30:00,
2013-01-04 19:35:00,30.3,26.6,29.65,ENE,76,2.0,5.0,86,0.00,,,0.01,Wunderground v.1.15,2013-01-05 04:35:00,
2013-01-04 19:41:00,30.5,26.8,29.65,ENE,62,2.0,4.0,86,0.00,,,0.01,Wunderground v.1.15,2013-01-05 04:41:00,
2013-01-04 19:47:00,30.5,26.5,29.65,NNE,29,2.0,4.0,85,0.00,,,0.01,Wunderground v.1.15,2013-01-05 04:47:00,
2013-01-04 19:52:00,30.5,26.5,29.65,NE,40,2.0,5.0,85,0.00,,,0.01,Wunderground v.1.15,2013-01-05 04:52:00,
2013-01-04 19:57:00,30.5,26.5,29.65,NNE,20,3.0,5.0,85,0.00,,,0.01,Wunderground v.1.15,2013-01-05 04:57:00,
2013-01-04 20:01:00,30.5,26.5,29.65,East,82,3.0,3.0,85,0.00,,,0.01,Wunderground v.1.15,2013-01-05 05:01:00,
2013-01-04 20:02:00,30.5,26.5,29.65,North,351,3.0,3.0,85,0.00,,,0.01,Wunderground v.1.15,2013-01-05 05:02:00,
2013-01-04 20:03:00,30.5,26.5,29.65,NNE,32,3.0,8.0,85,0.00,,,0.01,Wunderground v.1.15,2013-01-05 05:03:00,
2013-01-04 20:04:00,30.5,26.5,29.65,NNE,19,3.0,8.0,85,0.00,,,0.01,Wunderground v.1.15,2013-01-05 05:04:00,
2013-01-04 20:10:00,30.6,26.9,29.65,ENE,63,2.0,2.0,86,0.00,,,0.01,Wunderground v.1.15,2013-01-05 05:10:00,
2013-01-04 20:16:00,30.8,26.8,29.65,East,96,2.0,4.0,85,0.00,,,0.01,Wunderground v.1.15,2013-01-05 05:16:00,
2013-01-04 20:21:00,30.9,26.9,29.65,ENE,59,2.0,2.0,85,0.00,,,0.01,Wunderground v.1.15,2013-01-05 05:21:00,
2013-01-04 20:27:00,30.9,26.9,29.65,East,98,1.0,3.0,85,0.00,,,0.01,Wunderground v.1.15,2013-01-05 05:27:00,
2013-01-04 20:33:00,31.0,27.0,29.65,North,8,2.0,3.0,85,0.00,,,0.01,Wunderground v.1.15,2013-01-05 05:33:00,
2013-01-04 20:38:00,31.1,27.1,29.65,NE,36,2.0,3.0,85,0.00,,,0.01,Wunderground v.1.15,2013-01-05 05:38:00,
2013-01-04 20:44:00,31.1,27.1,29.65,ENE,63,2.0,4.0,85,0.00,,,0.01,Wunderground v.1.15,2013-01-05 05:44:00,
2013-01-04 20:50:00,31.2,26.9,29.65,NE,34,2.0,3.0,84,0.00,,,0.01,Wunderground v.1.15,2013-01-05 05:50:00,
2013-01-04 20:55:00,31.4,27.1,29.65,ENE,57,1.0,3.0,84,0.00,,,0.01,Wunderground v.1.15,2013-01-05 05:55:00,
2013-01-04 21:01:00,31.3,27.0,29.65,ENE,72,1.0,1.0,84,0.00,,,0.01,Wunderground v.1.15,2013-01-05 06:01:00,
2013-01-04 21:07:00,31.0,27.0,29.64,ENE,69,0.0,1.0,85,0.00,,,0.01,Wunderground v.1.15,2013-01-05 06:07:00,
2013-01-04 21:13:00,31.0,27.0,29.64,NNE,19,0.0,1.0,85,0.00,,,0.01,Wunderground v.1.15,2013-01-05 06:13:00,
2013-01-04 21:18:00,30.9,26.9,29.64,ENE,71,1.0,3.0,85,0.00,,,0.01,Wunderground v.1.15,2013-01-05 06:18:00,
2013-01-04 21:24:00,30.9,26.9,29.64,ENE,63,1.0,7.0,85,0.00,,,0.01,Wunderground v.1.15,2013-01-05 06:24:00,
2013-01-04 21:30:00,31.0,27.0,29.63,NE,43,1.0,2.0,85,0.00,,,0.01,Wunderground v.1.15,2013-01-05 06:30:00,
2013-01-04 21:36:00,31.1,26.8,29.63,ENE,68,1.0,2.0,84,0.00,,,0.01,Wunderground v.1.15,2013-01-05 06:36:00,
2013-01-04 21:41:00,31.0,27.0,29.63,NNE,20,2.0,4.0,85,0.00,,,0.01,Wunderground v.1.15,2013-01-05 06:41:00,
2013-01-04 21:47:00,31.2,26.9,29.63,NNE,25,4.0,8.0,84,0.00,,,0.01,Wunderground v.1.15,2013-01-05 06:47:00,
2013-01-04 21:53:00,31.3,27.0,29.63,NE,48,4.0,5.0,84,0.00,,,0.01,Wunderground v.1.15,2013-01-05 06:53:00,
2013-01-04 21:59:00,31.2,26.9,29.63,NNE,18,4.0,9.0,84,0.00,,,0.01,Wunderground v.1.15,2013-01-05 06:59:00,
2013-01-04 22:05:00,31.1,27.1,29.63,NE,51,3.0,8.0,85,0.00,,,0.01,Wunderground v.1.15,2013-01-05 07:05:00,
2013-01-04 22:11:00,31.1,26.8,29.62,ENE,67,2.0,3.0,84,0.00,,,0.01,Wunderground v.1.15,2013-01-05 07:11:00,
2013-01-04 22:17:00,31.2,26.9,29.62,ENE,61,4.0,10.0,84,0.00,,,0.01,Wunderground v.1.15,2013-01-05 07:17:00,
2013-01-04 22:22:00,31.2,26.9,29.62,ENE,71,4.0,4.0,84,0.00,,,0.01,Wunderground v.1.15,2013-01-05 07:22:00,
2013-01-04 22:28:00,31.0,27.0,29.62,NNE,19,3.0,4.0,85,0.00,,,0.01,Wunderground v.1.15,2013-01-05 07:28:00,
2013-01-04 22:34:00,31.0,27.0,29.62,NNE,23,2.0,4.0,85,0.00,,,0.01,Wunderground v.1.15,2013-01-05 07:34:00,
2013-01-04 22:40:00,31.1,27.1,29.61,ENE,72,2.0,2.0,85,0.00,,,0.01,Wunderground v.1.15,2013-01-05 07:40:00,
2013-01-04 22:46:00,31.1,27.1,29.61,East,87,2.0,4.0,85,0.00,,,0.01,Wunderground v.1.15,2013-01-05 07:46:00,
2013-01-04 22:52:00,31.1,27.1,29.61,NE,44,2.0,2.0,85,0.00,,,0.01,Wunderground v.1.15,2013-01-05 07:52:00,
2013-01-04 22:58:00,31.2,27.5,29.61,NE,54,2.0,5.0,86,0.00,,,0.01,Wunderground v.1.15,2013-01-05 07:58:00,
2013-01-04 23:04:00,31.3,27.3,29.61,NE,44,3.0,6.0,85,0.00,,,0.01,Wunderground v.1.15,2013-01-05 08:04:00,
2013-01-04 23:09:00,31.4,27.4,29.60,North,349,3.0,8.0,85,0.00,,,0.01,Wunderground v.1.15,2013-01-05 08:09:00,
2013-01-04 23:15:00,31.5,27.5,29.60,NNE,12,3.0,5.0,85,0.00,,,0.01,Wunderground v.1.15,2013-01-05 08:15:00,
2013-01-04 23:21:00,31.4,27.4,29.60,North,6,3.0,3.0,85,0.00,,,0.01,Wunderground v.1.15,2013-01-05 08:21:00,
2013-01-04 23:27:00,31.6,27.6,29.59,NNE,16,3.0,6.0,85,0.00,,,0.01,Wunderground v.1.15,2013-01-05 08:27:00,
2013-01-04 23:32:00,31.6,27.3,29.59,North,8,3.0,4.0,84,0.00,,,0.01,Wunderground v.1.15,2013-01-05 08:32:00,
2013-01-04 23:38:00,31.7,27.1,29.59,NE,47,3.0,4.0,83,0.00,,,0.01,Wunderground v.1.15,2013-01-05 08:38:00,
2013-01-04 23:44:00,31.6,27.0,29.59,ENE,61,2.0,3.0,83,0.00,,,0.01,Wunderground v.1.15,2013-01-05 08:44:00,
2013-01-04 23:50:00,31.6,27.0,29.59,North,353,2.0,6.0,83,0.00,,,0.01,Wunderground v.1.15,2013-01-05 08:50:00,
2013-01-04 23:56:00,31.7,27.1,29.58,ENE,60,2.0,6.0,83,0.00,,,0.01,Wunderground v.1.15,2013-01-05 08:56:00,